Location: �clusier
(49.9361°N, 2.7869°E)
Time: 06:40:55
(UTC+00:00)

Cosmos 2237 Rocket - Pass Details

Date: 16 June 2021
Orbit: 835 x 850 km, 71.0° (Epoch: 31 July)

Event Time Altitude Azimuth Distance (km) Brightness Sun altitude
Exits shadow 21:41:40 - 117° (ESE) 2,493 4.2 -11.4°
Reaches altitude 10° 21:42:03 10° 113° (ESE) 2,446 4.1 -11.4°
Maximum altitude 21:43:47 11° 95° (E) 2,346 4.2 -11.5°
Drops below altitude 10° 21:45:31 10° 77° (ENE) 2,451 4.5 -11.7°
Sets 21:49:49 0° 45° (NE) 3,393 5.6 -12.0°
